,,Stat6,,Stat2,,Stat8,,Stat9,,Stat10,,Wind1,,Wind1,
time,status,PA1M_AVG,status,PR1M_SUM,status,RH1M_AVG,status,SR1M_AVG,status,TA1M_AVG,status,W1dAve1m,status,W1sAve1m,
2007-10-31, 00:00:01,VALID,917.469,VALID,0,VALID,100,VALID,-0.0339617,VALID,19.0602,VALID,197,VALID,0.398801,
2007-10-31, 00:01:01,VALID,917.441,VALID,0,VALID,100,VALID,-0.0169808,VALID,19.0525,VALID,196,VALID,0.278299,
2007-10-31, 00:02:00,VALID,917.424,VALID,0,VALID,100,VALID,-0.0169808,VALID,19.0462,VALID,196,VALID,0.327592,
2007-10-31, 00:03:01,VALID,917.414,VALID,0,VALID,100,VALID,-0.0169808,VALID,19.0405,VALID,196,VALID,0.0932292,
2007-10-31, 00:04:01,VALID,917.404,VALID,0,VALID,100,VALID,-0.0509425,VALID,19.0365,VALID,196,VALID,0,
2007-10-31, 00:05:01,VALID,917.38,VALID,0,VALID,100,VALID,-0.0339617,VALID,19.0567,VALID,196,VALID,0,
2007-10-31, 00:06:01,VALID,917.366,VALID,0,VALID,100,VALID,-0.0339617,VALID,19.04,VALID,196,VALID,0.151811,
2007-10-31, 00:07:01,VALID,917.36,VALID,0,VALID,100,VALID,-0.0339617,VALID,19.0175,VALID,196,VALID,0.358041,
2007-10-31, 00:08:01,VALID,917.354,VALID,0,VALID,100,VALID,-0.101885,VALID,19.0113,VALID,196,VALID,0.363621,
2007-10-31, 00:09:01,VALID,917.338,VALID,0,VALID,100,VALID,-0.0679233,VALID,18.9981,VALID,196,VALID,0.233681,
2007-10-31, 00:10:00,VALID,917.338,VALID,0,VALID,100,VALID,-0.0509425,VALID,18.9951,VALID,196,VALID,0.11849,
2007-10-31, 00:11:00,VALID,917.312,VALID,0,VALID,100,VALID,0,VALID,18.9981,VALID,196,VALID,0.000355114,
2007-10-31, 00:12:00,VALID,917.296,VALID,0,VALID,100,VALID,0,VALID,18.9913,VALID,196,VALID,0.465892,
2007-10-31, 00:13:00,VALID,917.279,VALID,0,VALID,100,VALID,-0.0169808,VALID,18.9821,VALID,196,VALID,0.425114,
2007-10-31, 00:14:00,VALID,917.265,VALID,0,VALID,100,VALID,-0.0509425,VALID,18.9719,VALID,196,VALID,0.445694,
2007-10-31, 00:15:00,VALID,917.246,VALID,0,VALID,100,VALID,-0.0169808,VALID,18.9619,VALID,196,VALID,0.113372,
2007-10-31, 00:16:00,VALID,917.225,VALID,0,VALID,100,VALID,-0.0509425,VALID,18.9784,VALID,196,VALID,0.297053,
2007-10-31, 00:17:00,VALID,917.207,VALID,0,VALID,100,VALID,-0.0169808,VALID,19.0046,VALID,196,VALID,0.400073,
2007-10-31, 00:18:00,VALID,917.197,VALID,0,VALID,100,VALID,-0.0339617,VALID,18.9779,VALID,196,VALID,0.203125,
2007-10-31, 00:19:00,VALID,917.178,VALID,0,VALID,100,VALID,-0.0509425,VALID,18.9584,VALID,196,VALID,0,
2007-10-31, 00:20:00,VALID,917.17,VALID,0,VALID,100,VALID,-0.0169808,VALID,18.9756,VALID,196,VALID,0,
2007-10-31, 00:21:00,VALID,917.157,VALID,0,VALID,100,VALID,-0.0339617,VALID,18.9911,VALID,196,VALID,0,
2007-10-31, 00:22:00,VALID,917.15,VALID,0,VALID,100,VALID,0,VALID,19.014,VALID,196,VALID,0,
2007-10-31, 00:23:00,VALID,917.144,VALID,0,VALID,100,VALID,0,VALID,18.9811,VALID,196,VALID,0,
2007-10-31, 00:24:00,VALID,917.147,VALID,0,VALID,100,VALID,-0.0509425,VALID,18.9489,VALID,196,VALID,0,
2007-10-31, 00:25:00,VALID,917.138,VALID,0,VALID,100,VALID,-0.0509425,VALID,18.9397,VALID,196,VALID,0,
2007-10-31, 00:26:00,VALID,917.155,VALID,0,VALID,100,VALID,-0.0339617,VALID,18.9487,VALID,196,VALID,0.220749,
2007-10-31, 00:27:00,VALID,917.15,VALID,0,VALID,100,VALID,0,VALID,18.9751,VALID,193,VALID,0.396151,
2007-10-31, 00:28:00,VALID,917.163,VALID,0,VALID,100,VALID,0,VALID,19.0173,VALID,193,VALID,0.133168,
2007-10-31, 00:29:00,VALID,917.174,VALID,0,VALID,100,VALID,-0.0169808,VALID,19.053,VALID,193,VALID,0.00203804,
2007-10-31, 00:30:00,VALID,917.154,VALID,0,VALID,100,VALID,-0.0169808,VALID,19.0914,VALID,193,VALID,0.132643,
2007-10-31, 00:31:00,VALID,917.158,VALID,0,VALID,100,VALID,-0.0339617,VALID,19.0884,VALID,193,VALID,0.32279,
2007-10-31, 00:32:00,VALID,917.154,VALID,0,VALID,100,VALID,-0.0169808,VALID,19.0849,VALID,193,VALID,0.667383,
2007-10-31, 00:33:00,VALID,917.134,VALID,0,VALID,100,VALID,-0.0339617,VALID,19.0884,VALID,193,VALID,0.645241,
2007-10-31, 00:34:00,VALID,917.123,VALID,0,VALID,100,VALID,0,VALID,19.0782,VALID,193,VALID,0.584549,
2007-10-31, 00:35:00,VALID,917.119,VALID,0,VALID,100,VALID,0,VALID,19.0814,VALID,191,VALID,0.627232,
2007-10-31, 00:36:00,VALID,917.117,VALID,0,VALID,100,VALID,-0.0169808,VALID,19.0852,VALID,187,VALID,0.317578,
2007-10-31, 00:37:00,VALID,917.105,VALID,0,VALID,100,VALID,-0.0339617,VALID,19.0817,VALID,187,VALID,0.0681046,
2007-10-31, 00:38:00,VALID,917.1,VALID,0,VALID,100,VALID,-0.0339617,VALID,19.0787,VALID,187,VALID,0.331836,
2007-10-31, 00:39:00,VALID,917.091,VALID,0,VALID,100,VALID,-0.0339617,VALID,19.0694,VALID,187,VALID,0.290516,
2007-10-31, 00:40:00,VALID,917.088,VALID,0,VALID,100,VALID,-0.0169808,VALID,19.066,VALID,147,VALID,0.39117,
2007-10-31, 00:41:00,VALID,917.099,VALID,0,VALID,100,VALID,-0.0169808,VALID,19.0462,VALID,146,VALID,0.336806,
2007-10-31, 00:42:00,VALID,917.099,VALID,0,VALID,100,VALID,-0.0169808,VALID,19.0233,VALID,146,VALID,0.174055,
2007-10-31, 00:43:00,VALID,917.071,VALID,0,VALID,100,VALID,-0.0509425,VALID,19.0175,VALID,146,VALID,0.102471,
2007-10-31, 00:44:00,VALID,917.064,VALID,0,VALID,100,VALID,-0.0339617,VALID,19.0103,VALID,146,VALID,0.155895,
2007-10-31, 00:45:00,VALID,917.056,VALID,0,VALID,100,VALID,-0.0169808,VALID,19.0108,VALID,146,VALID,0.015625,
2007-10-31, 00:46:00,VALID,917.045,VALID,0,VALID,100,VALID,-0.0339617,VALID,19.0108,VALID,146,VALID,0,
2007-10-31, 00:47:00,VALID,917.038,VALID,0,VALID,100,VALID,-0.0679233,VALID,19.0106,VALID,146,VALID,0,
2007-10-31, 00:48:00,VALID,917.023,VALID,0,VALID,100,VALID,-0.0849042,VALID,19.0303,VALID,146,VALID,0,
2007-10-31, 00:49:00,VALID,917.019,VALID,0,VALID,100,VALID,-0.0339617,VALID,19.0238,VALID,146,VALID,0,
2007-10-31, 00:50:00,VALID,917.012,VALID,0,VALID,100,VALID,-0.0169808,VALID,19.0235,VALID,146,VALID,0,
2007-10-31, 00:51:00,VALID,916.999,VALID,0,VALID,100,VALID,-0.0339617,VALID,18.9978,VALID,144,VALID,0.330208,
2007-10-31, 00:52:00,VALID,916.984,VALID,0,VALID,100,VALID,-0.0679233,VALID,18.9534,VALID,139,VALID,0.738186,
2007-10-31, 00:53:00,VALID,916.98,VALID,0,VALID,100,VALID,-0.101885,VALID,18.9436,VALID,136,VALID,0.778525,
2007-10-31, 00:54:00,VALID,916.977,VALID,0,VALID,100,VALID,-0.152827,VALID,18.9304,VALID,131,VALID,0.676897,
2007-10-31, 00:55:00,VALID,916.971,VALID,0,VALID,100,VALID,-0.169808,VALID,18.9279,VALID,131,VALID,0.477865,
2007-10-31, 00:56:00,VALID,916.951,VALID,0,VALID,100,VALID,-0.152827,VALID,18.9214,VALID,154,VALID,0.345749,
2007-10-31, 00:57:00,VALID,916.945,VALID,0,VALID,100,VALID,-0.135847,VALID,18.9045,VALID,197,VALID,0.978906,
2007-10-31, 00:58:00,VALID,916.931,VALID,0,VALID,100,VALID,-0.118866,VALID,18.902,VALID,197,VALID,0.960258,
2007-10-31, 00:59:00,VALID,916.923,VALID,0,VALID,100,VALID,-0.169808,VALID,18.8922,VALID,184,VALID,0.959961,
2007-10-31, 01:00:00,VALID,916.911,VALID,0,VALID,100,VALID,-0.101885,VALID,18.8822,VALID,177,VALID,1.23084,
2007-10-31, 01:01:00,VALID,916.904,VALID,0,VALID,100,VALID,-0.118866,VALID,18.8628,VALID,176,VALID,1.49782,
2007-10-31, 01:02:00,VALID,916.888,VALID,0,VALID,100,VALID,-0.152827,VALID,18.8595,VALID,175,VALID,1.20011,
2007-10-31, 01:03:00,VALID,916.873,VALID,0,VALID,100,VALID,-0.135847,VALID,18.8628,VALID,168,VALID,1.23651,
2007-10-31, 01:04:00,VALID,916.862,VALID,0,VALID,100,VALID,-0.118866,VALID,18.8723,VALID,166,VALID,1.04669,
2007-10-31, 01:05:00,VALID,916.841,VALID,0,VALID,100,VALID,-0.118866,VALID,18.886,VALID,177,VALID,1.05487,
2007-10-31, 01:06:00,VALID,916.81,VALID,0,VALID,100,VALID,-0.135847,VALID,18.8725,VALID,176,VALID,1.13262,
2007-10-31, 01:07:00,VALID,916.801,VALID,0,VALID,100,VALID,-0.0679233,VALID,18.8653,VALID,170,VALID,1.24149,
2007-10-31, 01:08:00,VALID,916.771,VALID,0,VALID,100,VALID,-0.0849042,VALID,18.8584,VALID,158,VALID,1.03143,
2007-10-31, 01:09:00,VALID,916.759,VALID,0,VALID,100,VALID,-0.0679233,VALID,18.8484,VALID,158,VALID,0.758765,
2007-10-31, 01:10:00,VALID,916.765,VALID,0,VALID,100,VALID,-0.0509425,VALID,18.8382,VALID,164,VALID,0.396307,
2007-10-31, 01:11:00,VALID,916.73,VALID,0,VALID,100,VALID,-0.0679233,VALID,18.8384,VALID,160,VALID,0.257068,
2007-10-31, 01:12:00,VALID,916.708,VALID,0,VALID,100,VALID,-0.0169808,VALID,18.8324,VALID,135,VALID,0.697129,
2007-10-31, 01:13:00,VALID,916.697,VALID,0,VALID,100,VALID,-0.0169808,VALID,18.8454,VALID,78,VALID,0.986793,
2007-10-31, 01:14:00,VALID,916.706,VALID,0,VALID,100,VALID,-0.0339617,VALID,18.8157,VALID,83,VALID,0.857887,
2007-10-31, 01:15:00,VALID,916.701,VALID,0,VALID,100,VALID,-0.0339617,VALID,18.7898,VALID,132,VALID,0.583333,
2007-10-31, 01:16:00,VALID,916.7,VALID,0,VALID,100,VALID,-0.0169808,VALID,18.7673,VALID,180,VALID,0.980923,
2007-10-31, 01:17:00,VALID,916.671,VALID,0,VALID,100,VALID,-0.0169808,VALID,18.7733,VALID,197,VALID,0.892987,
2007-10-31, 01:18:00,VALID,916.652,VALID,0,VALID,100,VALID,0,VALID,18.7928,VALID,197,VALID,0.502046,
2007-10-31, 01:19:00,VALID,916.64,VALID,0,VALID,100,VALID,-0.0169808,VALID,18.8157,VALID,192,VALID,0.47154,
2007-10-31, 01:20:00,VALID,916.62,VALID,0,VALID,100,VALID,-0.0169808,VALID,18.793,VALID,161,VALID,0.53561,
2007-10-31, 01:21:00,VALID,916.595,VALID,0,VALID,100,VALID,-0.0679233,VALID,18.7606,VALID,160,VALID,0.425223,
2007-10-31, 01:22:00,VALID,916.564,VALID,0,VALID,100,VALID,-0.0339617,VALID,18.7543,VALID,160,VALID,0.437695,
2007-10-31, 01:23:00,VALID,916.532,VALID,0,VALID,100,VALID,-0.0849042,VALID,18.7932,VALID,94,VALID,0.413086,
2007-10-31, 01:24:00,VALID,916.507,VALID,0,VALID,100,VALID,-0.0339617,VALID,18.8322,VALID,76,VALID,0.265447,
2007-10-31, 01:25:00,VALID,916.489,VALID,0,VALID,100,VALID,-0.0339617,VALID,18.8254,VALID,76,VALID,0.326265,
2007-10-31, 01:26:00,VALID,916.461,VALID,0,VALID,100,VALID,-0.0849042,VALID,18.8289,VALID,76,VALID,0.0673363,
2007-10-31, 01:27:00,VALID,916.454,VALID,0,VALID,100,VALID,-0.0509425,VALID,18.8419,VALID,76,VALID,0,
2007-10-31, 01:28:00,VALID,916.455,VALID,0,VALID,100,VALID,-0.0169808,VALID,18.8414,VALID,76,VALID,0.0815549,
2007-10-31, 01:29:00,VALID,916.44,VALID,0,VALID,100,VALID,-0.0339617,VALID,18.8611,VALID,163,VALID,0.629192,
2007-10-31, 01:30:00,VALID,916.455,VALID,0,VALID,100,VALID,-0.0509425,VALID,18.8579,VALID,199,VALID,0.0636161,
2007-10-31, 01:31:00,VALID,916.447,VALID,0,VALID,100,VALID,-0.0509425,VALID,18.8546,VALID,199,VALID,0.140625,
2007-10-31, 01:32:00,VALID,916.455,VALID,0,VALID,100,VALID,-0.0509425,VALID,18.8451,VALID,199,VALID,0.164244,
2007-10-31, 01:33:00,VALID,916.469,VALID,0,VALID,100,VALID,-0.101885,VALID,18.8322,VALID,199,VALID,0.143169,
2007-10-31, 01:34:00,VALID,916.48,VALID,0,VALID,100,VALID,-0.0339617,VALID,18.8187,VALID,199,VALID,0,
2007-10-31, 01:35:00,VALID,916.5,VALID,0,VALID,100,VALID,-0.0509425,VALID,18.8057,VALID,199,VALID,0.0012718,
2007-10-31, 01:36:00,VALID,916.518,VALID,0,VALID,100,VALID,-0.0509425,VALID,18.7965,VALID,199,VALID,0,
2007-10-31, 01:37:00,VALID,916.519,VALID,0,VALID,100,VALID,-0.0169808,VALID,18.7865,VALID,199,VALID,0,
2007-10-31, 01:38:00,VALID,916.516,VALID,0,VALID,100,VALID,-0.0339617,VALID,18.8062,VALID,199,VALID,0,
2007-10-31, 01:39:00,VALID,916.523,VALID,0,VALID,100,VALID,-0.0169808,VALID,18.8356,VALID,199,VALID,0.1875,
2007-10-31, 01:40:00,VALID,916.531,VALID,0,VALID,100,VALID,-0.0339617,VALID,18.8127,VALID,140,VALID,0.61814,
2007-10-31, 01:41:00,VALID,916.527,VALID,0,VALID,100,VALID,0,VALID,18.8095,VALID,77,VALID,0.578125,
2007-10-31, 01:42:00,VALID,916.514,VALID,0,VALID,100,VALID,-0.0169808,VALID,18.8157,VALID,131,VALID,0.299361,
2007-10-31, 01:43:00,VALID,916.507,VALID,0,VALID,100,VALID,0.0169808,VALID,18.8155,VALID,177,VALID,0.280208,
2007-10-31, 01:44:00,VALID,916.476,VALID,0,VALID,100,VALID,-0.0339617,VALID,18.806,VALID,158,VALID,0.876272,
2007-10-31, 01:45:00,VALID,916.458,VALID,0,VALID,100,VALID,-0.0169808,VALID,18.79,VALID,129,VALID,0.814135,
2007-10-31, 01:46:00,VALID,916.459,VALID,0,VALID,100,VALID,0,VALID,18.7833,VALID,128,VALID,0.642805,
2007-10-31, 01:47:00,VALID,916.454,VALID,0,VALID,100,VALID,-0.0169808,VALID,18.7837,VALID,145,VALID,0.78561,
2007-10-31, 01:48:00,VALID,916.436,VALID,0,VALID,100,VALID,-0.0339617,VALID,18.7636,VALID,139,VALID,0.795099,
2007-10-31, 01:49:00,VALID,916.423,VALID,0,VALID,100,VALID,-0.0169808,VALID,18.7573,VALID,137,VALID,0.423177,
2007-10-31, 01:50:00,VALID,916.388,VALID,0,VALID,100,VALID,-0.0169808,VALID,18.7576,VALID,137,VALID,0.517223,
2007-10-31, 01:51:00,VALID,916.364,VALID,0,VALID,100,VALID,-0.0509425,VALID,18.7606,VALID,127,VALID,0.607701,
2007-10-31, 01:52:00,VALID,916.361,VALID,0,VALID,100,VALID,-0.0169808,VALID,18.7678,VALID,120,VALID,0.42066,
2007-10-31, 01:53:00,VALID,916.355,VALID,0,VALID,100,VALID,0,VALID,18.7448,VALID,124,VALID,0.122638,
2007-10-31, 01:54:00,VALID,916.347,VALID,0,VALID,100,VALID,-0.0169808,VALID,18.7281,VALID,142,VALID,0.543713,
2007-10-31, 01:55:00,VALID,916.339,VALID,0,VALID,100,VALID,0,VALID,18.7154,VALID,142,VALID,0.523438,
2007-10-31, 01:56:00,VALID,916.325,VALID,0,VALID,100,VALID,0,VALID,18.7224,VALID,142,VALID,0.256771,
2007-10-31, 01:57:00,VALID,916.319,VALID,0,VALID,100,VALID,-0.0509425,VALID,18.7346,VALID,151,VALID,0.550037,
2007-10-31, 01:58:00,VALID,916.314,VALID,0,VALID,100,VALID,-0.0339617,VALID,18.7383,VALID,163,VALID,0.529615,
2007-10-31, 01:59:00,VALID,916.315,VALID,0,VALID,100,VALID,-0.0339617,VALID,18.7508,VALID,163,VALID,0.241824,
2007-10-31, 02:00:00,VALID,916.313,VALID,0,VALID,100,VALID,-0.0169808,VALID,18.774,VALID,163,VALID,0.00639205,
2007-10-31, 02:01:00,VALID,916.314,VALID,0,VALID,100,VALID,0,VALID,18.7805,VALID,163,VALID,0,
2007-10-31, 02:02:00,VALID,916.313,VALID,0,VALID,100,VALID,0,VALID,18.7965,VALID,163,VALID,0,
2007-10-31, 02:03:00,VALID,916.289,VALID,0,VALID,100,VALID,0,VALID,18.8257,VALID,163,VALID,0.226563,
2007-10-31, 02:04:00,VALID,916.284,VALID,0,VALID,100,VALID,-0.0169808,VALID,18.8546,VALID,163,VALID,0.00855655,
2007-10-31, 02:05:00,VALID,916.277,VALID,0,VALID,100,VALID,0,VALID,18.8322,VALID,163,VALID,0.169398,
2007-10-31, 02:06:00,VALID,916.287,VALID,0,VALID,100,VALID,-0.0169808,VALID,18.8349,VALID,163,VALID,0.397166,
2007-10-31, 02:07:00,VALID,916.293,VALID,0,VALID,100,VALID,0,VALID,18.8678,VALID,164,VALID,0.0182884,
2007-10-31, 02:08:00,VALID,916.294,VALID,0,VALID,100,VALID,-0.0169808,VALID,18.8803,VALID,164,VALID,0,
2007-10-31, 02:09:00,VALID,916.293,VALID,0,VALID,100,VALID,-0.0849042,VALID,18.936,VALID,164,VALID,0,
2007-10-31, 02:10:00,VALID,916.281,VALID,0,VALID,100,VALID,-0.0169808,VALID,18.9557,VALID,164,VALID,0,
2007-10-31, 02:11:00,VALID,916.29,VALID,0,VALID,100,VALID,-0.0339617,VALID,18.9652,VALID,164,VALID,0,
2007-10-31, 02:12:00,VALID,916.28,VALID,0,VALID,100,VALID,0,VALID,18.9714,VALID,208,VALID,0.401228,
2007-10-31, 02:13:00,VALID,916.278,VALID,0,VALID,100,VALID,-0.0339617,VALID,18.9941,VALID,244,VALID,0.0638021,
2007-10-31, 02:14:00,VALID,916.272,VALID,0,VALID,100,VALID,-0.0169808,VALID,19.0076,VALID,245,VALID,0.0329241,
2007-10-31, 02:15:00,VALID,916.263,VALID,0,VALID,100,VALID,-0.0169808,VALID,19.0178,VALID,246,VALID,0,
2007-10-31, 02:16:00,VALID,916.257,VALID,0,VALID,100,VALID,-0.0169808,VALID,19.0338,VALID,246,VALID,0,
2007-10-31, 02:17:00,VALID,916.246,VALID,0,VALID,100,VALID,0,VALID,19.0627,VALID,246,VALID,0,
2007-10-31, 02:18:00,VALID,916.249,VALID,0,VALID,100,VALID,-0.0339617,VALID,19.0562,VALID,246,VALID,0.1163,
2007-10-31, 02:19:00,VALID,916.253,VALID,0,VALID,100,VALID,-0.0169808,VALID,19.0497,VALID,222,VALID,0.22061,
2007-10-31, 02:20:00,VALID,916.26,VALID,0,VALID,100,VALID,-0.0169808,VALID,19.069,VALID,202,VALID,0.102679,
2007-10-31, 02:21:00,VALID,916.269,VALID,0,VALID,100,VALID,0,VALID,19.0984,VALID,202,VALID,0.105058,
2007-10-31, 02:22:00,VALID,916.277,VALID,0,VALID,100,VALID,-0.0339617,VALID,19.1209,VALID,202,VALID,0.148065,
2007-10-31, 02:23:00,VALID,916.278,VALID,0,VALID,100,VALID,-0.0509425,VALID,19.1086,VALID,202,VALID,0.134215,
2007-10-31, 02:24:00,VALID,916.268,VALID,0,VALID,100,VALID,0,VALID,19.0557,VALID,198,VALID,0.495561,
2007-10-31, 02:25:00,VALID,916.271,VALID,0,VALID,100,VALID,0,VALID,19.0333,VALID,194,VALID,0.596657,
2007-10-31, 02:26:00,VALID,916.242,VALID,0,VALID,100,VALID,0,VALID,19.0143,VALID,189,VALID,0.50279,
2007-10-31, 02:27:00,VALID,916.232,VALID,0,VALID,100,VALID,-0.0339617,VALID,18.9846,VALID,186,VALID,0.477951,
2007-10-31, 02:28:00,VALID,916.222,VALID,0,VALID,100,VALID,0,VALID,18.9714,VALID,182,VALID,0.32649,
2007-10-31, 02:29:00,VALID,916.203,VALID,0,VALID,100,VALID,-0.0169808,VALID,18.9624,VALID,182,VALID,0.312309,
2007-10-31, 02:30:00,VALID,916.186,VALID,0,VALID,100,VALID,0,VALID,18.9624,VALID,182,VALID,0.0136265,
2007-10-31, 02:31:00,VALID,916.18,VALID,0,VALID,100,VALID,-0.0509425,VALID,18.9619,VALID,182,VALID,0,
2007-10-31, 02:32:00,VALID,916.187,VALID,0,VALID,100,VALID,0,VALID,18.9487,VALID,182,VALID,0,
2007-10-31, 02:33:00,VALID,916.187,VALID,0,VALID,100,VALID,0,VALID,18.9492,VALID,182,VALID,0,
2007-10-31, 02:34:00,VALID,916.191,VALID,0,VALID,100,VALID,0,VALID,18.9522,VALID,182,VALID,0,
2007-10-31, 02:35:00,VALID,916.192,VALID,0,VALID,100,VALID,0,VALID,18.9422,VALID,182,VALID,0,
2007-10-31, 02:36:00,VALID,916.198,VALID,0,VALID,100,VALID,0.0169808,VALID,18.942,VALID,182,VALID,0,
2007-10-31, 02:37:00,VALID,916.184,VALID,0,VALID,100,VALID,-0.0679233,VALID,18.9596,VALID,182,VALID,0,
2007-10-31, 02:38:00,VALID,916.182,VALID,0,VALID,100,VALID,-0.101885,VALID,18.9402,VALID,182,VALID,0,
2007-10-31, 02:39:00,VALID,916.185,VALID,0,VALID,100,VALID,-0.101885,VALID,18.9436,VALID,182,VALID,0,
2007-10-31, 02:40:00,VALID,916.192,VALID,0,VALID,100,VALID,-0.0849042,VALID,18.9337,VALID,182,VALID,0,
2007-10-31, 02:41:00,VALID,916.205,VALID,0,VALID,100,VALID,-0.101885,VALID,18.9239,VALID,182,VALID,0.319444,
2007-10-31, 02:42:00,VALID,916.21,VALID,0,VALID,100,VALID,-0.0679233,VALID,18.9302,VALID,182,VALID,0.305069,
2007-10-31, 02:43:00,VALID,916.215,VALID,0,VALID,100,VALID,-0.0849042,VALID,18.9207,VALID,182,VALID,0.349359,
2007-10-31, 02:44:00,VALID,916.226,VALID,0,VALID,100,VALID,-0.0849042,VALID,18.9012,VALID,182,VALID,0.479992,
2007-10-31, 02:45:00,VALID,916.242,VALID,0,VALID,100,VALID,-0.0679233,VALID,18.8917,VALID,182,VALID,0.343932,
2007-10-31, 02:46:00,VALID,916.234,VALID,0,VALID,100,VALID,-0.101885,VALID,18.8915,VALID,182,VALID,0.223366,
2007-10-31, 02:47:00,VALID,916.24,VALID,0,VALID,100,VALID,-0.101885,VALID,18.8947,VALID,182,VALID,0.09375,
2007-10-31, 02:48:00,VALID,916.223,VALID,0,VALID,100,VALID,-0.101885,VALID,18.885,VALID,182,VALID,0.0012718,
2007-10-31, 02:49:00,VALID,916.211,VALID,0,VALID,100,VALID,-0.118866,VALID,18.8885,VALID,182,VALID,0,
2007-10-31, 02:50:00,VALID,916.207,VALID,0,VALID,100,VALID,-0.101885,VALID,18.8947,VALID,182,VALID,0,
2007-10-31, 02:51:00,VALID,916.188,VALID,0,VALID,100,VALID,-0.101885,VALID,18.9015,VALID,182,VALID,0,
2007-10-31, 02:52:00,VALID,916.192,VALID,0,VALID,100,VALID,-0.0339617,VALID,18.9072,VALID,182,VALID,0.19478,
2007-10-31, 02:53:00,VALID,916.191,VALID,0,VALID,100,VALID,0,VALID,18.9235,VALID,135,VALID,0.506214,
2007-10-31, 02:54:00,VALID,916.203,VALID,0,VALID,100,VALID,0,VALID,18.8871,VALID,122,VALID,0.288872,
2007-10-31, 02:55:00,VALID,916.207,VALID,0,VALID,100,VALID,0.0339617,VALID,18.8739,VALID,122,VALID,0.0740412,
2007-10-31, 02:56:00,VALID,916.204,VALID,0,VALID,100,VALID,0.0339617,VALID,18.8609,VALID,122,VALID,0.0775799,
2007-10-31, 02:57:00,VALID,916.191,VALID,0,VALID,100,VALID,0.0169808,VALID,18.8676,VALID,93,VALID,0.247396,
2007-10-31, 02:58:00,VALID,916.165,VALID,0,VALID,100,VALID,-0.0169808,VALID,18.8966,VALID,81,VALID,0.0910247,
2007-10-31, 02:59:00,VALID,916.149,VALID,0,VALID,100,VALID,-0.0169808,VALID,18.9357,VALID,81,VALID,0.167187,
2007-10-31, 03:00:00,VALID,916.14,VALID,0,VALID,100,VALID,0,VALID,18.9519,VALID,81,VALID,0,
2007-10-31, 03:01:00,VALID,916.133,VALID,0,VALID,100,VALID,0.0339617,VALID,18.9549,VALID,81,VALID,0,
2007-10-31, 03:02:00,VALID,916.127,VALID,0,VALID,100,VALID,0,VALID,18.9712,VALID,81,VALID,0,
2007-10-31, 03:03:00,VALID,916.116,VALID,0,VALID,100,VALID,0,VALID,18.9811,VALID,81,VALID,0,
2007-10-31, 03:04:00,VALID,916.095,VALID,0,VALID,100,VALID,0,VALID,18.9841,VALID,81,VALID,0,
2007-10-31, 03:05:00,VALID,916.076,VALID,0,VALID,100,VALID,0,VALID,19.0233,VALID,81,VALID,0,
2007-10-31, 03:06:00,VALID,916.066,VALID,0,VALID,100,VALID,0.0339617,VALID,19.0263,VALID,80,VALID,0.0239826,
2007-10-31, 03:07:00,VALID,916.059,VALID,0,VALID,100,VALID,-0.0169808,VALID,19.0238,VALID,79,VALID,0.0347656,
2007-10-31, 03:08:00,VALID,916.061,VALID,0,VALID,100,VALID,-0.0679233,VALID,19.0145,VALID,79,VALID,0,
2007-10-31, 03:09:00,VALID,916.039,VALID,0,VALID,100,VALID,-0.0679233,VALID,18.9955,VALID,79,VALID,0,
2007-10-31, 03:10:00,VALID,916.035,VALID,0,VALID,100,VALID,-0.0849042,VALID,18.9661,VALID,79,VALID,0,
2007-10-31, 03:11:00,VALID,916.037,VALID,0,VALID,100,VALID,-0.118866,VALID,18.9664,VALID,71,VALID,0.128997,
2007-10-31, 03:12:00,VALID,916.028,VALID,0,VALID,100,VALID,-0.0849042,VALID,19.008,VALID,33,VALID,0.534896,
2007-10-31, 03:13:00,VALID,916.02,VALID,0,VALID,100,VALID,-0.0849042,VALID,19.0796,VALID,34,VALID,0.43608,
2007-10-31, 03:14:00,VALID,916.007,VALID,0,VALID,100,VALID,-0.101885,VALID,19.0924,VALID,34,VALID,0.532158,
2007-10-31, 03:15:00,VALID,915.982,VALID,0,VALID,100,VALID,-0.101885,VALID,19.0796,VALID,34,VALID,0.556463,
2007-10-31, 03:16:00,VALID,915.962,VALID,0,VALID,99.9705,VALID,-0.101885,VALID,19.044,VALID,34,VALID,0.369731,
2007-10-31, 03:17:00,VALID,915.966,VALID,0,VALID,99.9705,VALID,-0.0679233,VALID,19.0145,VALID,24,VALID,0.213477,
2007-10-31, 03:18:00,VALID,915.968,VALID,0,VALID,100,VALID,-0.118866,VALID,19.0183,VALID,10,VALID,0.0497332,
2007-10-31, 03:19:00,VALID,915.973,VALID,0,VALID,100,VALID,-0.0849042,VALID,19.0085,VALID,10,VALID,0,
2007-10-31, 03:20:00,VALID,915.98,VALID,0,VALID,100,VALID,-0.101885,VALID,19.0016,VALID,356,VALID,0.275036,
2007-10-31, 03:21:00,VALID,915.993,VALID,0,VALID,100,VALID,-0.101885,VALID,18.9923,VALID,344,VALID,0.275618,
2007-10-31, 03:22:00,VALID,916.003,VALID,0,VALID,100,VALID,0,VALID,18.9524,VALID,344,VALID,0,
2007-10-31, 03:23:00,VALID,916.03,VALID,0,VALID,100,VALID,0.0169808,VALID,18.919,VALID,344,VALID,0,
2007-10-31, 03:24:00,VALID,916.015,VALID,0,VALID,100,VALID,0,VALID,18.9,VALID,348,VALID,0,
2007-10-31, 03:25:00,VALID,916.045,VALID,0,VALID,100,VALID,0,VALID,18.8639,VALID,353,VALID,0,
2007-10-31, 03:26:00,VALID,916.082,VALID,0,VALID,100,VALID,-0.0339617,VALID,18.8449,VALID,352,VALID,0,
2007-10-31, 03:27:00,VALID,916.091,VALID,0,VALID,100,VALID,0.0679233,VALID,18.8414,VALID,328,VALID,0.331931,
2007-10-31, 03:28:00,VALID,916.107,VALID,0,VALID,100,VALID,0,VALID,18.822,VALID,324,VALID,0.0721726,
2007-10-31, 03:29:00,VALID,916.096,VALID,0,VALID,100,VALID,0.0509425,VALID,18.7993,VALID,324,VALID,0,
2007-10-31, 03:30:00,VALID,916.097,VALID,0,VALID,100,VALID,0.0169808,VALID,18.799,VALID,332,VALID,0,
2007-10-31, 03:31:00,VALID,916.095,VALID,0,VALID,100,VALID,0.0339617,VALID,18.809,VALID,13,VALID,0.292578,
2007-10-31, 03:32:00,VALID,916.096,VALID,0,VALID,100,VALID,0.0509425,VALID,18.8252,VALID,54,VALID,0.823401,
2007-10-31, 03:33:00,VALID,916.082,VALID,0,VALID,100,VALID,0,VALID,18.7921,VALID,73,VALID,0.722202,
2007-10-31, 03:34:00,VALID,916.076,VALID,0,VALID,100,VALID,0.0169808,VALID,18.7925,VALID,75,VALID,0.321584,
2007-10-31, 03:35:00,VALID,916.099,VALID,0,VALID,100,VALID,0.0339617,VALID,18.7893,VALID,75,VALID,0,
2007-10-31, 03:36:00,VALID,916.116,VALID,0,VALID,100,VALID,0.0169808,VALID,18.7856,VALID,75,VALID,0.0570494,
2007-10-31, 03:37:00,VALID,916.136,VALID,0,VALID,100,VALID,0.0169808,VALID,18.7995,VALID,328,VALID,0.187686,
2007-10-31, 03:38:00,VALID,916.151,VALID,0,VALID,100,VALID,0,VALID,18.8053,VALID,317,VALID,0.244606,
2007-10-31, 03:39:00,VALID,916.183,VALID,0,VALID,100,VALID,0,VALID,18.8152,VALID,314,VALID,0.453516,
2007-10-31, 03:40:00,VALID,916.198,VALID,0,VALID,100,VALID,-0.0169808,VALID,18.8187,VALID,314,VALID,0.331676,
2007-10-31, 03:41:00,VALID,916.213,VALID,0,VALID,100,VALID,0,VALID,18.8282,VALID,314,VALID,0.0143821,
2007-10-31, 03:42:00,VALID,916.219,VALID,0,VALID,100,VALID,0,VALID,18.8282,VALID,314,VALID,0,